date,time,SUV Intensity [MED/Hr],UV Index,Daily total [MED],Since Last [MED]
17/03/2022,00:05:51,-0.000,0.0,0.0,0.0
17/03/2022,00:06:51,0.000,0.0,0.0,0.0
17/03/2022,00:07:50,0.000,0.0,0.0,0.0
17/03/2022,00:08:50,0.000,0.0,0.0,0.0
17/03/2022,00:09:50,-0.001,0.0,0.0,0.0
17/03/2022,00:10:51,0.000,0.0,0.0,0.0
17/03/2022,00:11:50,0.000,0.0,0.0,0.0
17/03/2022,00:12:50,0.001,0.0,0.0,0.0
17/03/2022,00:13:51,0.000,0.0,0.0,0.0
17/03/2022,00:14:50,0.001,0.0,0.0,0.0
17/03/2022,00:15:50,0.000,0.0,0.0,0.0
17/03/2022,00:16:50,0.001,0.0,0.0,0.0
17/03/2022,00:17:51,0.000,0.0,0.0,0.0
17/03/2022,00:18:50,-0.001,0.0,0.0,0.0
17/03/2022,00:19:52,0.000,0.0,0.0,0.0
17/03/2022,00:20:50,0.000,0.0,0.0,0.0
17/03/2022,00:21:50,0.000,0.0,0.0,0.0
17/03/2022,00:22:51,-0.001,0.0,0.0,0.0
17/03/2022,00:23:51,0.001,0.0,0.0,0.0
17/03/2022,00:24:50,0.001,0.0,0.0,0.0
17/03/2022,00:25:50,0.000,0.0,0.0,0.0
17/03/2022,00:26:50,0.000,0.0,0.0,0.0
17/03/2022,00:27:51,0.000,0.0,0.0,0.0
17/03/2022,00:28:59,-0.000,0.0,0.0,0.0
17/03/2022,00:29:51,0.000,0.0,0.0,0.0
17/03/2022,00:30:51,0.000,0.0,0.0,0.0
17/03/2022,00:31:50,0.000,0.0,0.0,0.0
17/03/2022,00:32:50,0.001,0.0,0.0,0.0
17/03/2022,00:33:51,0.000,0.0,0.0,0.0
17/03/2022,00:34:51,0.000,0.0,0.0,0.0
17/03/2022,00:35:51,-0.000,0.0,0.0,0.0
17/03/2022,00:36:50,-0.001,0.0,0.0,0.0
17/03/2022,00:37:51,0.001,0.0,0.0,0.0
17/03/2022,00:38:59,0.000,0.0,0.0,0.0
17/03/2022,00:39:51,0.000,0.0,0.0,0.0
17/03/2022,00:40:50,0.001,0.0,0.0,0.0
17/03/2022,00:41:59,-0.000,0.0,0.0,0.0
17/03/2022,00:42:51,0.001,0.0,0.0,0.0
17/03/2022,00:43:50,-0.000,0.0,0.0,0.0
17/03/2022,00:44:58,0.000,0.0,0.0,0.0
17/03/2022,00:45:50,0.000,0.0,0.0,0.0
17/03/2022,00:46:51,0.000,0.0,0.0,0.0
17/03/2022,00:47:51,-0.001,0.0,0.0,0.0
17/03/2022,00:48:51,-0.001,0.0,0.0,0.0
17/03/2022,00:49:51,0.001,0.0,0.0,0.0
17/03/2022,00:50:50,0.000,0.0,0.0,0.0
17/03/2022,00:51:51,0.000,0.0,0.0,0.0
17/03/2022,00:52:51,0.000,0.0,0.0,0.0
17/03/2022,00:53:51,0.000,0.0,0.0,0.0
17/03/2022,00:54:50,0.000,0.0,0.0,0.0
17/03/2022,00:55:58,-0.000,0.0,0.0,0.0
17/03/2022,00:56:50,0.000,0.0,0.0,0.0
17/03/2022,00:57:51,-0.001,0.0,0.0,0.0
17/03/2022,00:58:50,0.000,0.0,0.0,0.0
17/03/2022,00:59:51,0.001,0.0,0.0,0.0
17/03/2022,01:00:52,0.000,0.0,0.0,0.0
17/03/2022,01:01:50,0.000,0.0,0.0,0.0
17/03/2022,01:02:51,0.000,0.0,0.0,0.0
17/03/2022,01:03:50,0.000,0.0,0.0,0.0
17/03/2022,01:04:50,0.001,0.0,0.0,0.0
17/03/2022,01:05:59,0.001,0.0,0.0,0.0
17/03/2022,01:06:50,0.001,0.0,0.0,0.0
17/03/2022,01:07:51,0.001,0.0,0.0,0.0
17/03/2022,01:08:51,0.000,0.0,0.0,0.0
17/03/2022,01:09:50,0.001,0.0,0.0,0.0
17/03/2022,01:10:50,0.000,0.0,0.0,0.0
17/03/2022,01:11:51,0.001,0.0,0.0,0.0
17/03/2022,01:12:50,-0.000,0.0,0.0,0.0
17/03/2022,01:13:53,0.001,0.0,0.0,0.0
17/03/2022,01:14:50,0.001,0.0,0.0,0.0
17/03/2022,01:15:59,0.001,0.0,0.0,0.0
17/03/2022,01:16:51,0.001,0.0,0.0,0.0
17/03/2022,01:17:51,0.001,0.0,0.0,0.0
17/03/2022,01:18:50,0.001,0.0,0.0,0.0
17/03/2022,01:19:50,0.001,0.0,0.0,0.0
17/03/2022,01:20:51,0.000,0.0,0.0,0.0
17/03/2022,01:22:00,0.001,0.0,0.0,0.0
17/03/2022,01:22:58,0.001,0.0,0.0,0.0
17/03/2022,01:23:51,0.001,0.0,0.0,0.0
17/03/2022,01:24:50,0.000,0.0,0.0,0.0
17/03/2022,01:25:51,0.001,0.0,0.0,0.0
17/03/2022,01:26:50,0.001,0.0,0.0,0.0
17/03/2022,01:27:50,0.002,0.0,0.0,0.0
17/03/2022,01:28:51,0.001,0.0,0.0,0.0
17/03/2022,01:29:59,0.001,0.0,0.0,0.0
17/03/2022,01:30:50,0.001,0.0,0.0,0.0
17/03/2022,01:31:50,0.000,0.0,0.0,0.0
17/03/2022,01:32:51,-0.000,0.0,0.0,0.0
17/03/2022,01:33:51,0.001,0.0,0.0,0.0
17/03/2022,01:34:51,0.000,0.0,0.0,0.0
17/03/2022,01:35:51,-0.000,0.0,0.0,0.0
17/03/2022,01:36:51,0.001,0.0,0.0,0.0
17/03/2022,01:37:50,0.002,0.0,0.0,0.0
17/03/2022,01:38:50,0.001,0.0,0.0,0.0
17/03/2022,01:39:59,-0.000,0.0,0.0,0.0
17/03/2022,01:40:50,0.001,0.0,0.0,0.0
17/03/2022,01:41:51,0.001,0.0,0.0,0.0
17/03/2022,01:43:43,-0.000,0.0,0.0,0.0
17/03/2022,01:44:50,0.001,0.0,0.0,0.0
17/03/2022,01:45:51,0.000,0.0,0.0,0.0
17/03/2022,01:46:51,0.001,0.0,0.0,0.0
17/03/2022,01:47:50,0.001,0.0,0.0,0.0
17/03/2022,01:48:50,0.001,0.0,0.0,0.0
17/03/2022,01:49:50,0.001,0.0,0.0,0.0
17/03/2022,01:50:51,0.002,0.0,0.0,0.0
17/03/2022,01:51:51,0.001,0.0,0.0,0.0
17/03/2022,01:52:50,0.001,0.0,0.0,0.0
17/03/2022,01:53:51,0.001,0.0,0.0,0.0
17/03/2022,01:54:50,0.001,0.0,0.0,0.0
17/03/2022,01:55:58,-0.000,0.0,0.0,0.0
17/03/2022,01:56:58,0.002,0.0,0.0,0.0
17/03/2022,01:57:50,0.001,0.0,0.0,0.0
17/03/2022,01:58:51,0.002,0.0,0.0,0.0
17/03/2022,01:59:50,0.001,0.0,0.0,0.0
17/03/2022,02:00:51,0.001,0.0,0.0,0.0
17/03/2022,02:01:51,0.000,0.0,0.0,0.0
17/03/2022,02:02:50,0.000,0.0,0.0,0.0
17/03/2022,02:03:59,0.001,0.0,0.0,0.0
17/03/2022,02:04:51,0.001,0.0,0.0,0.0
17/03/2022,02:05:51,0.001,0.0,0.0,0.0
17/03/2022,02:06:51,0.001,0.0,0.0,0.0
17/03/2022,02:07:51,0.001,0.0,0.0,0.0
17/03/2022,02:08:51,0.001,0.0,0.0,0.0
17/03/2022,02:09:50,0.001,0.0,0.0,0.0
17/03/2022,02:10:51,0.001,0.0,0.0,0.0
17/03/2022,02:11:51,0.001,0.0,0.0,0.0
17/03/2022,02:12:50,0.001,0.0,0.0,0.0
17/03/2022,02:13:58,0.001,0.0,0.0,0.0
17/03/2022,02:14:50,0.002,0.0,0.0,0.0
17/03/2022,02:15:51,0.002,0.0,0.0,0.0
17/03/2022,02:16:59,0.001,0.0,0.0,0.0
17/03/2022,02:17:50,0.001,0.0,0.0,0.0
17/03/2022,02:18:51,0.001,0.0,0.0,0.0
17/03/2022,02:19:51,0.001,0.0,0.0,0.0
17/03/2022,02:20:51,0.000,0.0,0.0,0.0
17/03/2022,02:21:50,0.001,0.0,0.0,0.0
17/03/2022,02:22:51,0.001,0.0,0.0,0.0
17/03/2022,02:23:51,0.001,0.0,0.0,0.0
17/03/2022,02:24:51,0.001,0.0,0.0,0.0
17/03/2022,02:25:50,-0.000,0.0,0.0,0.0
17/03/2022,02:26:51,0.001,0.0,0.0,0.0
17/03/2022,02:27:51,0.001,0.0,0.0,0.0
17/03/2022,02:28:51,0.001,0.0,0.0,0.0
17/03/2022,02:29:50,0.001,0.0,0.0,0.0
17/03/2022,02:30:51,0.001,0.0,0.0,0.0
17/03/2022,02:31:51,0.001,0.0,0.0,0.0
17/03/2022,02:32:50,0.001,0.0,0.0,0.0
17/03/2022,02:33:50,0.001,0.0,0.0,0.0
17/03/2022,02:34:51,0.001,0.0,0.0,0.0
17/03/2022,02:35:51,0.001,0.0,0.0,0.0
17/03/2022,02:36:50,0.001,0.0,0.0,0.0
17/03/2022,02:37:59,0.001,0.0,0.0,0.0
17/03/2022,02:38:51,0.000,0.0,0.0,0.0
17/03/2022,02:39:50,0.000,0.0,0.0,0.0
17/03/2022,02:40:50,0.001,0.0,0.0,0.0
17/03/2022,02:41:51,0.001,0.0,0.0,0.0
17/03/2022,02:42:51,0.001,0.0,0.0,0.0
17/03/2022,02:43:50,0.001,0.0,0.0,0.0
17/03/2022,02:44:51,0.002,0.0,0.0,0.0
17/03/2022,02:45:51,0.001,0.0,0.0,0.0
17/03/2022,02:46:51,0.001,0.0,0.0,0.0
17/03/2022,02:47:59,0.000,0.0,0.0,0.0
17/03/2022,02:48:51,0.000,0.0,0.0,0.0
17/03/2022,02:49:50,0.001,0.0,0.0,0.0
17/03/2022,02:50:51,0.001,0.0,0.0,0.0
17/03/2022,02:51:51,0.001,0.0,0.0,0.0
17/03/2022,02:52:50,0.001,0.0,0.0,0.0
17/03/2022,02:53:51,0.001,0.0,0.0,0.0
17/03/2022,02:54:51,0.001,0.0,0.0,0.0
17/03/2022,02:56:51,0.001,0.0,0.0,0.0
17/03/2022,02:57:59,0.001,0.0,0.0,0.0
17/03/2022,02:58:50,0.000,0.0,0.0,0.0
17/03/2022,02:59:51,0.001,0.0,0.0,0.0
17/03/2022,03:00:51,0.001,0.0,0.0,0.0
17/03/2022,03:01:51,0.001,0.0,0.0,0.0
17/03/2022,03:02:51,0.001,0.0,0.0,0.0
17/03/2022,03:03:59,0.001,0.0,0.0,0.0
17/03/2022,03:04:59,0.001,0.0,0.0,0.0
17/03/2022,03:05:52,0.000,0.0,0.0,0.0
17/03/2022,03:06:51,-0.000,0.0,0.0,0.0
17/03/2022,03:07:51,0.001,0.0,0.0,0.0
17/03/2022,03:08:51,-0.000,0.0,0.0,0.0
17/03/2022,03:09:51,0.001,0.0,0.0,0.0
17/03/2022,03:10:50,0.001,0.0,0.0,0.0
17/03/2022,03:12:00,0.001,0.0,0.0,0.0
17/03/2022,03:12:50,0.001,0.0,0.0,0.0
17/03/2022,03:13:51,0.001,0.0,0.0,0.0
17/03/2022,03:14:51,0.001,0.0,0.0,0.0
17/03/2022,03:15:51,0.001,0.0,0.0,0.0
17/03/2022,03:16:50,0.001,0.0,0.0,0.0
17/03/2022,03:17:50,0.001,0.0,0.0,0.0
17/03/2022,03:18:51,0.001,0.0,0.0,0.0
17/03/2022,03:19:51,0.002,0.0,0.0,0.0
17/03/2022,03:20:50,0.001,0.0,0.0,0.0
17/03/2022,03:21:51,0.001,0.0,0.0,0.0
17/03/2022,03:22:51,0.001,0.0,0.0,0.0
17/03/2022,03:23:50,0.001,0.0,0.0,0.0
17/03/2022,03:24:59,0.000,0.0,0.0,0.0
17/03/2022,03:25:49,0.001,0.0,0.0,0.0
17/03/2022,03:26:51,0.001,0.0,0.0,0.0
17/03/2022,03:27:51,0.001,0.0,0.0,0.0
17/03/2022,03:28:50,0.001,0.0,0.0,0.0
17/03/2022,03:29:51,0.001,0.0,0.0,0.0
17/03/2022,03:30:51,0.001,0.0,0.0,0.0
17/03/2022,03:31:51,0.001,0.0,0.0,0.0
17/03/2022,03:32:50,0.000,0.0,0.0,0.0
17/03/2022,03:33:50,0.000,0.0,0.0,0.0
17/03/2022,03:34:51,0.000,0.0,0.0,0.0
17/03/2022,03:35:51,0.002,0.0,0.0,0.0
17/03/2022,03:36:51,0.002,0.0,0.0,0.0
17/03/2022,03:37:51,0.001,0.0,0.0,0.0
17/03/2022,03:38:51,0.001,0.0,0.0,0.0
17/03/2022,03:39:51,0.002,0.0,0.0,0.0
17/03/2022,03:40:51,0.001,0.0,0.0,0.0
17/03/2022,03:41:51,0.001,0.0,0.0,0.0
17/03/2022,03:42:51,0.002,0.0,0.0,0.0
17/03/2022,03:43:50,0.000,0.0,0.0,0.0
17/03/2022,03:44:50,0.001,0.0,0.0,0.0
17/03/2022,03:45:59,0.001,0.0,0.0,0.0
17/03/2022,03:46:51,0.001,0.0,0.0,0.0
17/03/2022,03:47:51,0.000,0.0,0.0,0.0
17/03/2022,03:48:51,0.001,0.0,0.0,0.0
17/03/2022,03:49:51,0.001,0.0,0.0,0.0
17/03/2022,03:50:50,0.001,0.0,0.0,0.0
17/03/2022,03:51:51,0.001,0.0,0.0,0.0
17/03/2022,03:52:51,0.000,0.0,0.0,0.0
17/03/2022,03:53:51,0.001,0.0,0.0,0.0
17/03/2022,03:54:51,0.001,0.0,0.0,0.0
17/03/2022,03:55:59,0.000,0.0,0.0,0.0
17/03/2022,03:56:50,0.001,0.0,0.0,0.0
17/03/2022,03:57:51,0.001,0.0,0.0,0.0
17/03/2022,03:58:51,0.001,0.0,0.0,0.0
17/03/2022,03:59:50,0.001,0.0,0.0,0.0
17/03/2022,04:00:51,0.001,0.0,0.0,0.0
17/03/2022,04:01:51,0.001,0.0,0.0,0.0
17/03/2022,04:02:51,0.000,0.0,0.0,0.0
17/03/2022,04:03:59,0.001,0.0,0.0,0.0
17/03/2022,04:04:51,0.000,0.0,0.0,0.0
17/03/2022,04:05:59,0.001,0.0,0.0,0.0
17/03/2022,04:06:50,0.002,0.0,0.0,0.0
17/03/2022,04:07:53,0.001,0.0,0.0,0.0
17/03/2022,04:08:50,0.001,0.0,0.0,0.0
17/03/2022,04:09:51,0.001,0.0,0.0,0.0
17/03/2022,04:10:51,0.002,0.0,0.0,0.0
17/03/2022,04:11:52,0.001,0.0,0.0,0.0
17/03/2022,04:12:50,-0.000,0.0,0.0,0.0
17/03/2022,04:13:50,0.002,0.0,0.0,0.0
17/03/2022,04:14:50,0.001,0.0,0.0,0.0
17/03/2022,04:15:59,0.002,0.0,0.0,0.0
17/03/2022,04:16:50,0.001,0.0,0.0,0.0
17/03/2022,04:17:50,0.001,0.0,0.0,0.0
17/03/2022,04:18:50,0.001,0.0,0.0,0.0
17/03/2022,04:19:50,0.001,0.0,0.0,0.0
17/03/2022,04:20:50,0.001,0.0,0.0,0.0
17/03/2022,04:21:51,0.001,0.0,0.0,0.0
17/03/2022,04:22:51,0.000,0.0,0.0,0.0
17/03/2022,04:23:59,0.002,0.0,0.0,0.0
17/03/2022,04:24:51,0.001,0.0,0.0,0.0
17/03/2022,04:25:51,0.001,0.0,0.0,0.0
17/03/2022,04:26:50,0.001,0.0,0.0,0.0
17/03/2022,04:27:50,0.001,0.0,0.0,0.0
17/03/2022,04:28:51,0.002,0.0,0.0,0.0
17/03/2022,04:29:51,0.001,0.0,0.0,0.0
17/03/2022,04:30:42,0.001,0.0,0.0,0.0
17/03/2022,04:31:51,0.001,0.0,0.0,0.0
17/03/2022,04:32:51,0.000,0.0,0.0,0.0
17/03/2022,04:33:59,0.001,0.0,0.0,0.0
17/03/2022,04:34:51,0.002,0.0,0.0,0.0
17/03/2022,04:35:51,0.001,0.0,0.0,0.0
17/03/2022,04:36:51,0.001,0.0,0.0,0.0
17/03/2022,04:37:50,0.001,0.0,0.0,0.0
17/03/2022,04:38:51,0.002,0.0,0.0,0.0
17/03/2022,04:39:51,0.000,0.0,0.0,0.0
17/03/2022,04:40:42,0.000,0.0,0.0,0.0
17/03/2022,04:41:52,0.001,0.0,0.0,0.0
17/03/2022,04:42:51,0.001,0.0,0.0,0.0
17/03/2022,04:43:50,0.000,0.0,0.0,0.0
17/03/2022,04:44:51,0.001,0.0,0.0,0.0
17/03/2022,04:45:51,0.001,0.0,0.0,0.0
17/03/2022,04:46:51,0.001,0.0,0.0,0.0
17/03/2022,04:47:50,0.001,0.0,0.0,0.0
17/03/2022,04:48:50,0.001,0.0,0.0,0.0
17/03/2022,04:49:51,0.000,0.0,0.0,0.0
17/03/2022,04:50:51,0.000,0.0,0.0,0.0
17/03/2022,04:51:51,0.000,0.0,0.0,0.0
17/03/2022,04:52:51,0.001,0.0,0.0,0.0
17/03/2022,04:53:51,0.001,0.0,0.0,0.0
17/03/2022,04:54:51,0.001,0.0,0.0,0.0
17/03/2022,04:55:51,0.001,0.0,0.0,0.0
17/03/2022,04:56:51,0.001,0.0,0.0,0.0
17/03/2022,04:57:51,0.001,0.0,0.0,0.0
17/03/2022,04:58:51,0.001,0.0,0.0,0.0
17/03/2022,04:59:51,0.001,0.0,0.0,0.0
17/03/2022,05:00:51,0.001,0.0,0.0,0.0
17/03/2022,05:01:51,0.002,0.0,0.0,0.0
17/03/2022,05:02:51,0.001,0.0,0.0,0.0
17/03/2022,05:03:50,0.001,0.0,0.0,0.0
17/03/2022,05:04:51,0.001,0.0,0.0,0.0
17/03/2022,05:05:51,0.000,0.0,0.0,0.0
17/03/2022,05:06:51,0.001,0.0,0.0,0.0
17/03/2022,05:07:51,0.001,0.0,0.0,0.0
17/03/2022,05:08:51,0.001,0.0,0.0,0.0
17/03/2022,05:09:50,0.002,0.0,0.0,0.0
17/03/2022,05:10:51,0.001,0.0,0.0,0.0
17/03/2022,05:11:59,0.001,0.0,0.0,0.0
17/03/2022,05:12:51,0.002,0.0,0.0,0.0
17/03/2022,05:13:51,0.001,0.0,0.0,0.0
17/03/2022,05:14:59,0.001,0.0,0.0,0.0
17/03/2022,05:15:51,0.001,0.0,0.0,0.0
17/03/2022,05:16:59,0.001,0.0,0.0,0.0
17/03/2022,05:17:49,0.000,0.0,0.0,0.0
17/03/2022,05:18:51,0.002,0.0,0.0,0.0
17/03/2022,05:19:51,0.001,0.0,0.0,0.0
17/03/2022,05:20:51,0.001,0.0,0.0,0.0
17/03/2022,05:21:51,0.000,0.0,0.0,0.0
17/03/2022,05:22:51,0.001,0.0,0.0,0.0
17/03/2022,05:23:51,0.001,0.0,0.0,0.0
17/03/2022,05:24:51,0.001,0.0,0.0,0.0
17/03/2022,05:26:00,0.001,0.0,0.0,0.0
17/03/2022,05:26:49,0.001,0.0,0.0,0.0
17/03/2022,05:27:51,0.001,0.0,0.0,0.0
17/03/2022,05:28:51,0.000,0.0,0.0,0.0
17/03/2022,05:29:51,0.002,0.0,0.0,0.0
17/03/2022,05:30:51,0.000,0.0,0.0,0.0
17/03/2022,05:31:51,0.001,0.0,0.0,0.0
17/03/2022,05:32:51,0.000,0.0,0.0,0.0
17/03/2022,05:33:51,0.002,0.0,0.0,0.0
17/03/2022,05:34:51,0.001,0.0,0.0,0.0
17/03/2022,05:35:59,0.001,0.0,0.0,0.0
17/03/2022,05:36:51,0.001,0.0,0.0,0.0
17/03/2022,05:37:51,0.001,0.0,0.0,0.0
17/03/2022,05:38:50,0.002,0.0,0.0,0.0
17/03/2022,05:39:51,0.002,0.0,0.0,0.0
17/03/2022,05:40:51,0.002,0.0,0.0,0.0
17/03/2022,05:41:50,0.002,0.0,0.0,0.0
17/03/2022,05:42:51,0.002,0.0,0.0,0.0
17/03/2022,05:43:51,0.001,0.0,0.0,0.0
17/03/2022,05:44:50,0.001,0.0,0.0,0.0
17/03/2022,05:45:51,0.001,0.0,0.0,0.0
17/03/2022,05:46:51,0.000,0.0,0.0,0.0
17/03/2022,05:47:51,0.000,0.0,0.0,0.0
17/03/2022,05:48:51,0.001,0.0,0.0,0.0
17/03/2022,05:49:51,0.002,0.0,0.0,0.0
17/03/2022,05:50:51,0.000,0.0,0.0,0.0
17/03/2022,05:51:51,0.001,0.0,0.0,0.0
17/03/2022,05:52:51,0.002,0.0,0.0,0.0
17/03/2022,05:53:52,0.000,0.0,0.0,0.0
17/03/2022,05:54:51,0.001,0.0,0.0,0.0
17/03/2022,05:55:51,0.000,0.0,0.0,0.0
17/03/2022,05:56:59,0.002,0.0,0.0,0.0
17/03/2022,05:57:51,0.001,0.0,0.0,0.0
17/03/2022,05:58:51,0.001,0.0,0.0,0.0
17/03/2022,05:59:51,0.001,0.0,0.0,0.0
17/03/2022,06:00:51,0.002,0.0,0.0,0.0
17/03/2022,06:01:51,0.001,0.0,0.0,0.0
17/03/2022,06:02:51,0.002,0.0,0.0,0.0
17/03/2022,06:03:51,0.000,0.0,0.0,0.0
17/03/2022,06:04:51,0.001,0.0,0.0,0.0
17/03/2022,06:05:51,0.002,0.0,0.0,0.0
17/03/2022,06:06:59,0.001,0.0,0.0,0.0
17/03/2022,06:07:59,0.003,0.0,0.0,0.0
17/03/2022,06:08:51,0.002,0.0,0.0,0.0
17/03/2022,06:09:51,0.003,0.0,0.0,0.0
17/03/2022,06:10:51,0.003,0.0,0.0,0.0
17/03/2022,06:11:51,0.002,0.0,0.0,0.0
17/03/2022,06:12:51,0.002,0.0,0.0,0.0
17/03/2022,06:13:51,0.002,0.0,0.0,0.0
17/03/2022,06:14:59,0.002,0.0,0.0,0.0
17/03/2022,06:15:51,0.002,0.0,0.0,0.0
17/03/2022,06:16:52,0.003,0.0,0.0,0.0
17/03/2022,06:17:51,0.003,0.0,0.0,0.0
17/03/2022,06:18:51,0.003,0.0,0.0,0.0
17/03/2022,06:19:51,0.003,0.0,0.0,0.0
17/03/2022,06:20:51,0.003,0.0,0.0,0.0
17/03/2022,06:21:51,0.003,0.0,0.0,0.0
17/03/2022,06:22:51,0.004,0.0,0.0,0.0
17/03/2022,06:23:51,0.004,0.0,0.0,0.0
17/03/2022,06:24:51,0.004,0.0,0.0,0.0
17/03/2022,06:25:52,0.004,0.0,0.0,0.0
17/03/2022,06:26:51,0.004,0.0,0.0,0.0
17/03/2022,06:27:51,0.005,0.0,0.0,0.0
17/03/2022,06:28:51,0.005,0.0,0.0,0.0
17/03/2022,06:29:51,0.005,0.0,0.0,0.0
17/03/2022,06:30:51,0.006,0.0,0.0,0.0
17/03/2022,06:31:51,0.006,0.0,0.0,0.0
17/03/2022,06:32:51,0.007,0.0,0.0,0.0
17/03/2022,06:33:51,0.006,0.0,0.0,0.0
17/03/2022,06:34:51,0.007,0.0,0.0,0.0
17/03/2022,06:35:51,0.007,0.0,0.0,0.0
17/03/2022,06:36:51,0.006,0.0,0.0,0.0
17/03/2022,06:37:51,0.008,0.0,0.001,0.001
17/03/2022,06:38:59,0.008,0.0,0.001,0.0
17/03/2022,06:39:51,0.008,0.0,0.001,0.0
17/03/2022,06:41:04,0.008,0.0,0.001,0.0
17/03/2022,06:42:52,0.011,0.0,0.001,0.0
17/03/2022,06:43:51,0.010,0.0,0.001,0.0
17/03/2022,06:44:51,0.011,0.0,0.002,0.001
17/03/2022,06:45:51,0.011,0.0,0.002,0.0
17/03/2022,06:46:51,0.010,0.0,0.002,0.0
17/03/2022,06:47:51,0.013,0.0,0.002,0.0
17/03/2022,06:48:59,0.012,0.0,0.002,0.0
17/03/2022,06:49:59,0.012,0.0,0.003,0.001
17/03/2022,06:50:51,0.013,0.0,0.003,0.0
17/03/2022,06:51:51,0.014,0.0,0.003,0.0
17/03/2022,06:52:51,0.014,0.0,0.003,0.0
17/03/2022,06:53:51,0.015,0.0,0.003,0.0
17/03/2022,06:54:51,0.015,0.0,0.004,0.001
17/03/2022,06:55:51,0.016,0.0,0.004,0.0
17/03/2022,06:56:59,0.016,0.0,0.004,0.0
17/03/2022,06:57:51,0.018,0.0,0.005,0.001
17/03/2022,06:58:50,0.018,0.0,0.005,0.0
17/03/2022,06:59:51,0.019,0.0,0.005,0.0
17/03/2022,07:00:51,0.019,0.0,0.005,0.0
17/03/2022,07:01:51,0.020,0.0,0.006,0.001
17/03/2022,07:02:51,0.021,0.0,0.006,0.0
17/03/2022,07:03:51,0.021,0.0,0.006,0.0
17/03/2022,07:04:51,0.023,0.0,0.007,0.001
17/03/2022,07:05:51,0.022,0.0,0.007,0.0
17/03/2022,07:06:52,0.023,0.0,0.008,0.001
17/03/2022,07:07:51,0.024,0.0,0.008,0.0
17/03/2022,07:08:43,0.025,0.0,0.008,0.0
17/03/2022,07:09:52,0.025,0.0,0.009,0.001
17/03/2022,07:10:59,0.026,0.0,0.009,0.0
17/03/2022,07:11:51,0.028,0.0,0.01,0.001
17/03/2022,07:12:51,0.027,0.0,0.01,0.0
17/03/2022,07:13:51,0.029,0.0,0.011,0.001
17/03/2022,07:14:51,0.030,0.0,0.011,0.0
17/03/2022,07:15:51,0.030,0.0,0.012,0.001
17/03/2022,07:16:51,0.031,0.0,0.012,0.0
17/03/2022,07:17:51,0.033,0.0,0.013,0.001
17/03/2022,07:18:51,0.033,0.0,0.013,0.0
17/03/2022,07:19:59,0.035,0.0,0.014,0.001
17/03/2022,07:20:51,0.037,0.0,0.014,0.0
17/03/2022,07:21:51,0.037,0.0,0.015,0.001
17/03/2022,07:22:52,0.038,0.0,0.016,0.001
17/03/2022,07:23:51,0.039,0.0,0.016,0.0
17/03/2022,07:24:51,0.040,0.0,0.017,0.001
17/03/2022,07:25:51,0.041,0.0,0.018,0.001
17/03/2022,07:26:51,0.041,0.0,0.018,0.0
17/03/2022,07:27:51,0.043,0.0,0.019,0.001
17/03/2022,07:28:51,0.044,0.0,0.02,0.001
17/03/2022,07:29:53,0.046,0.0,0.02,0.0
17/03/2022,07:30:51,0.046,0.0,0.021,0.001
17/03/2022,07:31:51,0.048,0.0,0.022,0.001
17/03/2022,07:32:52,0.049,0.0,0.023,0.001
17/03/2022,07:33:51,0.050,0.0,0.024,0.001
17/03/2022,07:34:59,0.053,0.0,0.025,0.001
17/03/2022,07:35:51,0.053,0.0,0.025,0.0
17/03/2022,07:36:51,0.054,0.0,0.026,0.001
17/03/2022,07:37:51,0.056,0.0,0.027,0.001
17/03/2022,07:38:51,0.058,0.0,0.028,0.001
17/03/2022,07:39:51,0.059,0.0,0.029,0.001
17/03/2022,07:40:51,0.061,0.0,0.03,0.001
17/03/2022,07:41:52,0.062,0.0,0.031,0.001
17/03/2022,07:42:51,0.063,0.0,0.032,0.001
17/03/2022,07:43:51,0.065,0.0,0.033,0.001
17/03/2022,07:44:51,0.067,0.0,0.034,0.001
17/03/2022,07:45:51,0.068,0.0,0.035,0.001
17/03/2022,07:46:51,0.070,0.0,0.037,0.002
17/03/2022,07:47:51,0.071,0.0,0.038,0.001
17/03/2022,07:48:51,0.074,0.0,0.039,0.001
17/03/2022,07:49:51,0.075,0.0,0.04,0.001
17/03/2022,07:50:51,0.076,0.0,0.041,0.001
17/03/2022,07:51:52,0.078,0.0,0.043,0.002
17/03/2022,07:53:00,0.081,0.0,0.044,0.001
17/03/2022,07:53:51,0.083,0.0,0.045,0.001
17/03/2022,07:54:52,0.083,0.0,0.047,0.002
17/03/2022,07:55:51,0.086,0.0,0.048,0.001
17/03/2022,07:56:51,0.088,0.0,0.05,0.002
17/03/2022,07:57:51,0.090,0.0,0.051,0.001
17/03/2022,07:58:52,0.091,0.0,0.053,0.002
17/03/2022,07:59:51,0.093,0.0,0.054,0.001
17/03/2022,08:00:51,0.096,0.0,0.056,0.002
17/03/2022,08:01:52,0.098,0.0,0.057,0.001
17/03/2022,08:02:51,0.100,0.0,0.059,0.002
17/03/2022,08:03:51,0.101,0.0,0.061,0.002
17/03/2022,08:04:51,0.104,0.0,0.062,0.001
17/03/2022,08:05:51,0.106,0.0,0.064,0.002
17/03/2022,08:06:51,0.109,0.0,0.066,0.002
17/03/2022,08:07:51,0.111,0.0,0.068,0.002
17/03/2022,08:08:51,0.113,0.0,0.07,0.002
17/03/2022,08:09:50,0.114,0.0,0.071,0.001
17/03/2022,08:10:51,0.117,0.0,0.073,0.002
17/03/2022,08:11:51,0.119,0.0,0.075,0.002
17/03/2022,08:12:51,0.122,0.0,0.077,0.002
17/03/2022,08:13:51,0.125,0.0,0.079,0.002
17/03/2022,08:14:51,0.127,0.0,0.082,0.003
17/03/2022,08:15:52,0.130,0.0,0.084,0.002
17/03/2022,08:17:00,0.131,0.0,0.086,0.002
17/03/2022,08:17:51,0.135,0.0,0.088,0.002
17/03/2022,08:18:51,0.137,0.0,0.09,0.002
17/03/2022,08:19:51,0.140,0.0,0.093,0.003
17/03/2022,08:20:51,0.142,0.0,0.095,0.002
17/03/2022,08:21:51,0.145,0.0,0.097,0.002
17/03/2022,08:22:51,0.148,0.0,0.1,0.003
17/03/2022,08:23:51,0.151,0.0,0.102,0.002
17/03/2022,08:24:52,0.152,0.0,0.105,0.003
17/03/2022,08:25:52,0.156,0.0,0.108,0.003
17/03/2022,08:26:52,0.159,0.0,0.11,0.002
17/03/2022,08:27:51,0.162,0.0,0.113,0.003
17/03/2022,08:28:51,0.164,0.0,0.115,0.002
17/03/2022,08:29:51,0.168,0.0,0.118,0.003
17/03/2022,08:30:51,0.171,0.0,0.121,0.003
17/03/2022,08:31:51,0.173,0.0,0.124,0.003
17/03/2022,08:32:52,0.177,0.0,0.127,0.003
17/03/2022,08:33:51,0.179,0.0,0.13,0.003
17/03/2022,08:34:51,0.182,0.0,0.133,0.003
17/03/2022,08:35:51,0.185,0.0,0.136,0.003
17/03/2022,08:36:52,0.188,0.0,0.139,0.003
17/03/2022,08:38:00,0.191,0.0,0.143,0.004
17/03/2022,08:38:51,0.195,0.0,0.145,0.002
17/03/2022,08:39:51,0.198,0.0,0.149,0.004
17/03/2022,08:40:51,0.201,0.0,0.152,0.003
17/03/2022,08:41:51,0.204,0.0,0.155,0.003
17/03/2022,08:42:51,0.208,0.0,0.159,0.004
17/03/2022,08:43:53,0.211,0.0,0.162,0.003
17/03/2022,08:44:52,0.214,0.0,0.166,0.004
17/03/2022,08:45:51,0.218,0.0,0.169,0.003
17/03/2022,08:46:51,0.221,1.0,0.173,0.004
17/03/2022,08:47:51,0.225,1.0,0.177,0.004
17/03/2022,08:48:51,0.229,1.0,0.18,0.003
17/03/2022,08:49:51,0.232,1.0,0.184,0.004
17/03/2022,08:50:43,0.234,1.0,0.188,0.004
17/03/2022,08:51:52,0.238,1.0,0.192,0.004
17/03/2022,08:52:52,0.242,1.0,0.196,0.004
17/03/2022,08:53:51,0.246,1.0,0.2,0.004
17/03/2022,08:54:52,0.250,1.0,0.204,0.004
17/03/2022,08:55:51,0.253,1.0,0.209,0.005
17/03/2022,08:56:51,0.257,1.0,0.213,0.004
17/03/2022,08:57:51,0.260,1.0,0.217,0.004
17/03/2022,08:58:52,0.264,1.0,0.222,0.005
17/03/2022,08:59:51,0.268,1.0,0.226,0.004
17/03/2022,09:00:51,0.271,1.0,0.23,0.004
17/03/2022,09:01:59,0.274,1.0,0.236,0.006
17/03/2022,09:02:51,0.278,1.0,0.239,0.003
17/03/2022,09:03:52,0.282,1.0,0.244,0.005
17/03/2022,09:04:51,0.288,1.0,0.249,0.005
17/03/2022,09:05:51,0.290,1.0,0.254,0.005
17/03/2022,09:06:51,0.293,1.0,0.259,0.005
17/03/2022,09:07:52,0.298,1.0,0.264,0.005
17/03/2022,09:08:52,0.302,1.0,0.269,0.005
17/03/2022,09:09:51,0.305,1.0,0.274,0.005
17/03/2022,09:10:51,0.310,1.0,0.279,0.005
17/03/2022,09:11:52,0.313,1.0,0.284,0.005
17/03/2022,09:12:51,0.317,1.0,0.289,0.005
17/03/2022,09:13:51,0.322,1.0,0.294,0.005
17/03/2022,09:14:51,0.325,1.0,0.3,0.006
17/03/2022,09:15:52,0.329,1.0,0.305,0.005
17/03/2022,09:16:52,0.334,1.0,0.311,0.006
17/03/2022,09:17:52,0.338,1.0,0.317,0.006
17/03/2022,09:18:51,0.341,1.0,0.322,0.005
17/03/2022,09:19:51,0.346,1.0,0.328,0.006
17/03/2022,09:20:52,0.351,1.0,0.334,0.006
17/03/2022,09:21:51,0.354,1.0,0.34,0.006
17/03/2022,09:22:51,0.358,1.0,0.345,0.005
17/03/2022,09:23:51,0.362,1.0,0.351,0.006
17/03/2022,09:24:52,0.366,1.0,0.358,0.007
17/03/2022,09:26:00,0.370,1.0,0.365,0.007
17/03/2022,09:26:50,0.374,1.0,0.37,0.005
17/03/2022,09:28:00,0.379,1.0,0.377,0.007
17/03/2022,09:29:00,0.384,1.0,0.384,0.007
17/03/2022,09:29:50,0.387,1.0,0.389,0.005
17/03/2022,09:30:51,0.393,1.0,0.396,0.007
17/03/2022,09:31:51,0.397,1.0,0.402,0.006
17/03/2022,09:32:51,0.402,1.0,0.409,0.007
17/03/2022,09:33:51,0.405,1.0,0.416,0.007
17/03/2022,09:34:51,0.412,1.0,0.422,0.006
17/03/2022,09:36:00,0.415,1.0,0.43,0.008
17/03/2022,09:36:51,0.418,1.0,0.436,0.006
17/03/2022,09:37:51,0.423,1.0,0.443,0.007
17/03/2022,09:38:59,0.426,1.0,0.451,0.008
17/03/2022,09:39:51,0.432,1.0,0.457,0.006
17/03/2022,09:40:51,0.437,1.0,0.464,0.007
17/03/2022,09:41:51,0.441,1.0,0.472,0.008
17/03/2022,09:42:51,0.445,1.0,0.479,0.007
17/03/2022,09:43:52,0.449,1.0,0.487,0.008
17/03/2022,09:44:51,0.455,1.0,0.494,0.007
17/03/2022,09:45:59,0.459,1.0,0.503,0.009
17/03/2022,09:46:51,0.464,1.0,0.509,0.006
17/03/2022,09:47:52,0.469,1.0,0.518,0.009
17/03/2022,09:49:00,0.474,1.0,0.526,0.008
17/03/2022,09:49:50,0.478,1.0,0.533,0.007
17/03/2022,09:50:51,0.483,1.0,0.541,0.008
17/03/2022,09:51:59,0.485,1.0,0.55,0.009
17/03/2022,09:52:51,0.489,1.0,0.557,0.007
17/03/2022,09:53:52,0.495,1.0,0.566,0.009
17/03/2022,09:54:52,0.500,1.0,0.574,0.008
17/03/2022,09:55:51,0.504,1.0,0.582,0.008
17/03/2022,09:56:51,0.509,1.0,0.591,0.009
17/03/2022,09:57:51,0.514,1.0,0.599,0.008
17/03/2022,09:58:52,0.519,1.0,0.608,0.009
17/03/2022,10:00:00,0.527,1.0,0.618,0.01
17/03/2022,10:00:52,0.527,1.0,0.625,0.007
17/03/2022,10:01:51,0.534,1.0,0.634,0.009
17/03/2022,10:02:51,0.535,1.0,0.643,0.009
17/03/2022,10:03:51,0.543,1.0,0.652,0.009
17/03/2022,10:04:51,0.547,1.0,0.661,0.009
17/03/2022,10:05:52,0.552,1.0,0.67,0.009
17/03/2022,10:06:51,0.557,1.0,0.68,0.01
17/03/2022,10:07:51,0.563,1.0,0.689,0.009
17/03/2022,10:08:52,0.568,1.0,0.698,0.009
17/03/2022,10:10:00,0.571,1.0,0.709,0.011
17/03/2022,10:10:51,0.467,1.0,0.717,0.008
17/03/2022,10:11:51,0.584,1.0,0.726,0.009
17/03/2022,10:12:52,0.586,1.0,0.736,0.01
17/03/2022,10:13:52,0.589,1.0,0.746,0.01
17/03/2022,10:14:51,0.604,1.0,0.756,0.01
17/03/2022,10:15:51,0.609,1.0,0.765,0.009